PROBA-3 OSC

unknown
NORAD ID: 62258 Int'l Des: 2024-233 Owner: ESA Country: I-ESA
MEOELLIPTICALHEO_ELLIPTICAL

PROBA-3 OSCについて

説明を読み込み中...

リアルタイム位置

3D地球を読み込み中...

次回通過

高度履歴

Altitude vs Time

uPlot chart will show altitude changes over time

軌道要素

1 62258U 24233C 26069.20364853 -.00000176 00000-0 31704-2 0 9993
2 62258 59.6148 105.7948 8014513 202.6494 77.3699 1.22080846 5604
Epoch: Mar 10, 2026 • Age: 70 hours

現在のステータス

高度 60124.5 km
速度 1.10 km/s
衛星直下点 20.88°N, 21.49°W
打ち上げ日 Dec 5, 2024
運用期間 1.2 years
タイプ other

技術仕様

分類 Payload
質量 200.00 kg
乾燥質量 200.00 kg
総質量 200.00 kg
長さ 1.40 m
直径 0.90 m
スパン 1.40 m
形状 Cyl
製造者 ADST
バスタイプ Myriade
フェーズステータス In Orbit
所有者/国 ESA/I-ESA

大規模コンステレーション

Loading constellations...